Location: *
(48.8489°N, 2.3218°E)
Time: 19:20:46
(UTC+00:00)

Cosmos 1515 - Pass Details

Date: 23 August 2019
Orbit: 507 x 516 km, 82.5° (Epoch: 17 October)

Event Time Altitude Azimuth Distance (km) Brightness Sun altitude
Rises 19:51:40 0° 352° (N) 2,636 7.9 -9.8°
Reaches altitude 10° 19:53:49 10° 355° (N) 1,746 6.9 -10.1°
Maximum altitude 19:57:38 67° 78° (ENE) 561 3.7 -10.7°
Drops below altitude 10° 20:01:26 10° 162° (SSE) 1,736 5.9 -11.2°
Enters shadow 20:01:30 10° 163° (SSE) 1,769 6.0 -11.2°
